Regional Weather Roundup
Issued by NWS

Home | Current Version | Previous Version | Graphics & Text | Print | Product List | Glossary On
Versions: 1 2 3 4 5 6 7 8 9 10 11 12 13 14 15 16 17 18 19 20 21 22 23 24 25 26 27 28 29 30 31 32 33 34 35 36 37 38 39 40 41 42 43 44 45 46 47 48 49 50
000
ASUS43 KDTX 271410
RWRMI
MICHIGAN HOURLY REGIONAL WEATHER ROUNDUP
NATIONAL WEATHER SERVICE DETROIT/PONTIAC MI
900 AM EST THU NOV 27 2014

NOTE: "FAIR" INDICATES FEW OR NO CLOUDS BELOW 12,000 FEET WITH NO
SIGNIFICANT WEATHER AND/OR OBSTRUCTION TO VISIBILITY.

MIZ047>049-052>055-059>063-066>070-074>076-081>083-271500-
SOUTHEAST LOWER MICHIGAN

CITY           SKY/WX    TMP DP  RH WIND       PRES   REMARKS
ADRIAN         CLOUDY    29  21  72 W6        30.17R
ALMA           MOCLDY    28  24  88 W5        30.15S
ANN ARBOR      CLOUDY    29  21  72 NW9       30.15R
BAD AXE        CLOUDY    29  25  85 NW9       30.10R
DETROIT CITY   CLOUDY    30  21  69 W7        30.14R
DETROIT        CLOUDY    29  20  69 W6        30.16R
FLINT          CLOUDY    31  24  75 W12       30.14R
GROSSE ILE     CLOUDY    30  21  69 W6        30.14R
HILLSDALE      PTSUNNY   29  23  79 W9        30.15R
HOWELL         CLOUDY    29  24  82 NW7       30.14R

CITY           SKY/WX    TMP DP  RH WIND       PRES   REMARKS
JACKSON        PTSUNNY   28  21  75 W9        30.16R
LAMBERTVILLE   CLOUDY    32  21  64 NW5       30.17R
LANSING        LGT SNOW  28  23  81 W8        30.16R
LAPEER         NOT AVBL
MASON          CLOUDY    29  24  81 NW7       30.15R
MONROE         CLOUDY    30  21  69 CALM      30.15R
MT. CLEMENS    CLOUDY    28  24  84 W8        30.11R
PONTIAC        CLOUDY    27  22  81 W7        30.11R
PORT HOPE        N/A     30  28  92 NW16G24   30.06S
PORT HURON     CLOUDY    28  23  80 W5        30.12R
TRI CITIES     CLOUDY    29  23  78 W9        30.15R
YPSILANTI      CLOUDY    33  21  61 NW9       30.16R
$$
MIZ043>046-050>051-056>058-064>065-071>073-077>080-271500-
SOUTHWEST LOWER MICHIGAN

CITY           SKY/WX    TMP DP  RH WIND       PRES   REMARKS
BATTLE CREEK   CLOUDY    29  22  75 W7        30.18R
BENTON HARBOR  CLOUDY    31  23  72 NW13G22   30.22R
BIG RAPIDS     CLOUDY    26  26  97 NW6       30.14S
COLDWATER      CLOUDY    29  25  84 W5        30.18R
HOLLAND        LGT SNOW  30  27  88 CALM      30.19S FOG
GRAND RAPIDS   LGT SNOW  27  24  89 W5        30.18R FOG
KALAMAZOO      LGT SNOW  28  24  85 W5        30.19R FOG
MARSHALL       CLOUDY    27  22  84 W3        30.16R
MUSKEGON       SNOW      30  26  85 N5        30.18S VSB 1/2
$$
MIZ016>042-271500-
NORTHERN LOWER MICHIGAN

CITY           SKY/WX    TMP DP  RH WIND       PRES   REMARKS
ALPENA         LGT SNOW  26  24  92 NW9G24    30.12R VSB 1
BEAVER ISLAND  CLOUDY    22  15  74 NW12G21   30.22R
BELLAIRE       LGT SNOW  24  21  87 N6        30.20S
CADILLAC       CLOUDY    23  20  87 N9G16     30.12R
CHARLEVOIX     CLOUDY    23  17  77 NW13G24   30.23R
FRANKFORT      LGT SNOW  25  22  85 N12G17    30.21R
GAYLORD        CLOUDY    20  15  81 NW9G17    30.13R
GRAYLING       CLOUDY    24  20  88 N9        30.14R
HARBOR SPRINGS LGT SNOW  22  16  79 CALM      30.19R
HOUGHTON LAKE  FLURRIES  25  21  85 N10       30.12R
MANISTEE       CLOUDY    27  21  80 NE10G16   30.21R
OSCODA         CLOUDY    27  25  91 NW12      30.10R
PELLSTON       CLOUDY    21  14  74 NW15      30.20R
TRAVERSE CITY  LGT SNOW  26  19  74 N13G24    30.19R
$$
MIZ007>008-015-271500-
EASTERN UPPER MICHIGAN

CITY           SKY/WX    TMP DP  RH WIND       PRES   REMARKS
KINROSS        PTCLDY    18  16  93 W16       30.15R
MACKINAC ISLAN CLOUDY    21  14  75 NW10G21   30.17R
NEWBERRY       PTCLDY    14  10  85 NW8       30.19R
S. S. MARIE    CLOUDY    21  13  71 NW13G22   30.13R
$$
MIZ004>006-011>014-085-271500-
CENTRAL UPPER MICHIGAN

CITY           SKY/WX    TMP DP  RH WIND       PRES   REMARKS
MANISTIQUE     CLEAR     15  13  90 NW10      30.23R
ESCANABA       PTCLDY    12   1  62 NW13G18   30.27S WCI  -3
MENOMINEE      CLOUDY    12   5  73 NW12G17   30.30R WCI  -2
SAWYER-GWINN   CLEAR      7   1  78 NW10      30.24R WCI  -8
$$
MIZ001>003-009>011-084-271500-
WESTERN UPPER MICHIGAN

CITY           SKY/WX    TMP DP  RH WIND       PRES   REMARKS
IRON MOUNTAIN  CLEAR      5   0  79 NW8       30.29R
HOUGHTON       LGT SNOW   8   0  69 N9        30.30S
COPPER HARBOR    N/A     14   9  80 N22G31    30.32R WCI  -4
IRONWOOD       CLOUDY     9   7  92 NW9       30.31S
$$

ABBREVIATIONS USED IN REMARKS
   TC - TEMPERATURE IN CELSIUS
  WCI - WIND CHILL INDEX
   HX - HEAT INDEX
  VSB - VISIBILITY




USA.gov is the U.S. government's official web portal to all federal, state and local government web resources and services.